DELTA 1 DEB, 13531

Orbit data source: Space-Track

DELTA 1 DEB, 13531 is space debris in SSO originally from a launch on Thu, 29 Jul 1976 UTC launched from the Air Force Western Test Range (AFWTR). Debris objects in space refer to the collection of defunct objects orbiting the Earth. Examples of debris include non-operational satellites, rocket bodies, and fragments generated from explosions, collisions, or faulty payload assembly.

Loading next visibility...
Identifier
13531, 1976-077ED
Orbit
SSO
Country
Flag of USUS
Related business
Manufacturer
Unknown
Mission
Spacecraft
Bus & Motor
Unknown
Mass
Unknown
Launch date (UTC)
1976-07-29 (49 years ago)
Launch vehicle
Unknown
Launch site
Air Force Western Test Range (AFWTR)
Object type
Payload
Rocket body
Debris
Shape & HBR
Unknown shape, 0.1 m
Radar Cross Section
Small (<0.1 m²)

Expand to show TLE details & history
Last TLE update: 20 hours ago

TLE from 20 hours ago
0 DELTA 1 DEB
1 13531U 76077ED  25302.85609211  .00000002  00000-0  46827-3 0  9996
2 13531 102.7228 275.8411 0140582 203.7455 193.0502 12.17136739928033
Epoch: 2025-10-29T20:32Z
TLE epoch observation values (Epoch: 2025-10-29T20:32:46.358Z)
Latitude
35.47216°
Longitude
-79.98885°
Altitude
1,718.873 km
Speed
6.972 km/s
True Right ascension
17h 46m 30s
True Declination
35° 19' 45"
Sunlit
Object was in daylight at epoch
Visualization orbit readout
Latitude
Unknown
Longitude
Unknown
Altitude
Unknown
Speed
Unknown
Apparent Right ascension
Unknown
Apparent Declination
Unknown
Sunlit
N/A
Visualization observer readout
Local Sidereal Time
11:53:27
Azimuth
Unknown
Elevation
Unknown
Doppler factor
Unknown
Orbital elements
Apogee altitude
1,714.881 km
Perigee altitude
1,490.489 km
Semi-major axis
7,980.822 km
Eccentricity
0.01406
Inclination
102.7228°
RAAN
275.8411°
Arg. of periapsis
203.7455°
True anomaly
192.69257°
Mean anomaly
193.0502°
Eccentric anomaly
192.87078°
Mean motion
3.04419 °/min
Orbital period
118.26 mins
BSTAR
0.00046827
Loading maneuver chart data...
Computing Atmospheric mass density...
Loading historical data...
Loading historical data...
Loading historical data...
Loading historical data...
Loading historical data...
Loading historical data...
Loading historical data...

Documentation

Showing up to 5 results
|